Bennington, VT

11:28 AM EST on February 24, 2018 (GMT -0500)
Morse State

Weather History for KDDH - December, 2012

Change the Weather History Date:

Saturday, December 15, 2012

  Actual Average Record
Temperature  
Mean Temperature 31 °F 28 °F  
Max Temperature 37 °F 36 °F 63 °F (2015)
Min Temperature 24 °F 20 °F -2 °F (2005)
Degree Days  
Heating Degree Days 34 37  
Month to date heating degree days 426 516  
Since 1 July heating degree days 1878 2129  
Cooling Degree Days 0 0  
Month to date cooling degree days 0 0  
Year to date cooling degree days 476 313  
Moisture  
Dew Point 21 °F    
Average Humidity 64    
Maximum Humidity 85    
Minimum Humidity 43    
Precipitation  
Precipitation 0.00 in 0.09 in 0.38 in (2011)
Month to date precipitation 1.35 1.43  
Year to date precipitation 31.00 39.34  
Sea Level Pressure  
Sea Level Pressure 30.27 in    
Wind  
Wind Speed 2 mph (NW)    
Max Wind Speed 9 mph    
Max Gust Speed 12 mph    
Visibility 10 miles    
Events      
T = Trace of Precipitation, MM = Missing Value Source: NWS Daily Summary

Daily Weather History Graph

Daily Weather History Graph

Search for Another Location

Airport or City:

Trip Planner

Search our weather history database for the weather conditions in past years. The results will help you decide how hot, cold, wet, or windy it might be!

Date:

Astronomy

Dec. 15, 2012 Rise Set
Actual Time 7:17 AM EST 4:19 PM EST
Civil Twilight 6:44 AM EST 4:51 PM EST
Nautical Twilight 6:09 AM EST 5:27 PM EST
Astronomical Twilight 5:34 AM EST 6:02 PM EST
Moon 9:05 AM EST (12/15) 7:23 PM EST (12/15)
Length of Visible Light 10h 06m
Length of Day
9h 02m
Waxing Crescent, 8% of the Moon is Illuminated
Dec 15
Waxing Crescent
Dec 20
First Quarter
Dec 28
Full
Jan 4
Last Quarter
Jan 11
New

Hourly Weather History & Observations

Time (EST) Temp. Windchill Dew Point Humidity Pressure Visibility Wind Dir Wind Speed Gust Speed Precip Events Conditions
12:54 AM 36.0 °F 30.3 °F 27.0 °F 70% 30.20 in 10.0 mi WNW 6.9 mph - N/A   Overcast
1:54 AM 33.1 °F - 26.1 °F 75% 30.20 in 10.0 mi Calm Calm - N/A   Partly Cloudy
2:54 AM 32.0 °F - 26.1 °F 79% 30.22 in 10.0 mi Calm Calm - N/A   Overcast
3:54 AM 33.1 °F - 26.1 °F 75% 30.23 in 10.0 mi Calm Calm - N/A   Overcast
4:54 AM 34.0 °F 31.0 °F 26.1 °F 73% 30.26 in 10.0 mi NW 3.5 mph - N/A   Overcast
5:54 AM 30.9 °F 27.5 °F 24.1 °F 76% 30.27 in 10.0 mi WNW 3.5 mph - N/A   Clear
6:54 AM 28.9 °F - 21.9 °F 75% 30.29 in 10.0 mi Calm Calm - N/A   Scattered Clouds
7:54 AM 28.0 °F - 23.0 °F 81% 30.30 in 10.0 mi Calm Calm - N/A   Mostly Cloudy
8:54 AM 28.9 °F - 24.1 °F 82% 30.32 in 10.0 mi Calm Calm - N/A   Partly Cloudy
9:54 AM 33.1 °F - 23.0 °F 66% 30.32 in 10.0 mi Calm Calm - N/A   Clear
10:54 AM 36.0 °F - 23.0 °F 59% 30.31 in 10.0 mi Calm Calm - N/A   Clear
11:54 AM 36.0 °F 33.3 °F 21.9 °F 57% 30.29 in 10.0 mi Variable 3.5 mph - N/A   Clear
12:54 PM 36.0 °F 30.3 °F 21.0 °F 55% 30.29 in 10.0 mi NW 6.9 mph - N/A   Clear
1:54 PM 36.0 °F 30.3 °F 19.9 °F 52% 30.27 in 10.0 mi West 6.9 mph - 0.02 in   Clear
2:54 PM 37.0 °F 34.5 °F 19.9 °F 50% 30.27 in 10.0 mi NW 3.5 mph - N/A   Clear
3:54 PM 33.1 °F - 19.0 °F 56% 30.27 in 10.0 mi Calm Calm - N/A   Clear
4:54 PM 30.0 °F - 19.0 °F 64% 30.27 in 10.0 mi Calm Calm - N/A   Clear
5:54 PM 27.0 °F - 19.9 °F 75% 30.27 in 10.0 mi Calm Calm - N/A   Clear
6:54 PM 27.0 °F - 18.0 °F 69% 30.27 in 10.0 mi Calm Calm - N/A   Clear
7:54 PM 27.0 °F - 18.0 °F 69% 30.27 in 10.0 mi Calm Calm - N/A   Clear
8:54 PM 26.1 °F - 19.0 °F 75% 30.28 in 10.0 mi Calm Calm - N/A   Clear
9:54 PM 27.0 °F - 18.0 °F 69% 30.26 in 10.0 mi Calm Calm - N/A   Clear
10:54 PM 32.0 °F 27.5 °F 12.0 °F 44% 30.26 in 10.0 mi East 4.6 mph - N/A   Clear
11:54 PM 33.1 °F 26.9 °F 12.0 °F 42% 30.23 in 10.0 mi ESE 6.9 mph - N/A   Clear